STARLINK-32644, 62151

Orbit data source: Space-Track

STARLINK-32644, 62151 is a payload satellite owned by SpaceX/Seattle (US) in LEO that was launched on Sat, 30 Nov 2024 UTC via an FALCON 9 launch vehicle from the Air Force Eastern Test Range (AFETR). Payload-class satellites include a variety of spacecraft equipped with specific instruments for various scientific and technological missions. These include communications satellites like Starlink; space stations such as the ISS; scientific satellites like the Hubble; Earth observation satellites from companies like Planet Labs, Umbra, and HawkEye 360; GPS; miniature CubeSats for education and research; and military/defense satellites.

Loading next visibility...
Identifier
62151, 2024-224N
Orbit
LEO
Country
Flag of USUS
Related business
Manufacturer
SpaceX/Seattle
Mission
Operational Commercial Communications
Bus & Motor
STARLINK V2M, Unknown motor
Mass
730 kg wet, ~700 kg dry
Launch date (UTC)
2024-11-30 (1 year ago)
Launch vehicle
FALCON 9
Launch site
Air Force Eastern Test Range (AFETR)
Object type
Payload
Rocket body
Debris
Shape & HBR
Box + 2 Pan, 17.7 m
Radar Cross Section
33.884 m², Large (>1 m²)

Expand to show TLE details & history
Last TLE update: 18 hours ago

TLE from 18 hours ago
0 STARLINK-32644
1 62151U 24224N   25348.85940228  .00015678  00000-0  57805-3 0  9994
2 62151  43.0018 277.4118 0000897 288.9254  71.1500 15.27580058 59509
Epoch: 2025-12-14T20:37Z
TLE epoch observation values (Epoch: 2025-12-14T20:37:32.356Z)
Latitude
-0.00007°
Longitude
-115.73936°
Altitude
482.626 km
Speed
7.626 km/s
True Right ascension
18h 29m 38s
True Declination
0° 00' 00"
Sunlit
Object was in daylight at epoch
Visualization orbit readout
Latitude
Unknown
Longitude
Unknown
Altitude
Unknown
Speed
Unknown
Apparent Right ascension
Unknown
Apparent Declination
Unknown
Sunlit
N/A
Visualization observer readout
Local Sidereal Time
13:25:42
Azimuth
Unknown
Elevation
Unknown
Doppler factor
Unknown
Orbital elements
Apogee altitude
485.609 km
Perigee altitude
484.378 km
Semi-major axis
6,863.131 km
Eccentricity
0.00009
Inclination
43.0018°
RAAN
277.4118°
Arg. of periapsis
288.9254°
True anomaly
71.15973°
Mean anomaly
71.15°
Eccentric anomaly
71.15486°
Mean motion
3.81733 °/min
Orbital period
94.31 mins
BSTAR
0.00057805
Loading maneuver chart data...
Computing Atmospheric mass density...
Loading historical data...
Loading historical data...
Loading historical data...
Loading historical data...
Loading historical data...
Loading historical data...
Loading historical data...

Documentation

Showing up to 5 results
|